Wind_Speed
14 12 9 7 6 5 6 7 9 10 10 10 11 13 14 15 16 15 16 15 14 12 10 9 6 5 6 7 8 10 12 13 15 16 17 18 19 19 19 19 20 20 21 21
12 10 9 7 6 7 7 8 10 11 11 11 13 13 15 13 12 12 11 9 9 7 6 4 2 3 5 7 9 11 13 15 16 17 18 19 20 20 20 20 19 19 20 21
8 8 8 7 7 7 8 8 10 11 10 11 12 12 12 9 5 4 4 3 2 0 1 1 2 4 7 9 12 13 15 16 18 18 18 19 19 19 19 19 19 18 18 19
8 8 7 6 7 7 8 8 9 9 9 11 11 11 11 8 5 4 3 3 3 3 3 3 4 6 9 11 13 15 16 17 17 18 18 18 18 18 18 18 17 17 17 17
8 8 7 7 7 8 8 8 8 8 8 9 10 9 9 6 6 5 5 5 4 4 4 5 7 9 11 13 15 16 16 17 17 17 17 17 18 18 18 18 17 17 17 17
9 8 7 7 8 8 8 8 8 8 7 9 8 7 7 5 5 4 4 5 5 6 7 8 10 11 13 15 16 16 17 17 17 18 18 18 18 19 19 19 19 18 18 18
9 9 8 8 8 8 8 7 8 8 7 10 8 6 6 5 5 5 5 6 7 8 10 11 12 13 15 16 17 17 18 18 18 18 18 18 19 20 20 20 20 20 20 20
8 9 10 9 8 8 8 7 5 4 6 9 9 8 8 7 7 7 8 9 9 10 12 13 14 15 17 17 18 18 19 19 19 19 19 20 21 22 22 22 22 23 23 24
8 10 12 10 9 9 9 7 7 6 6 6 8 10 10 10 10 10 11 11 11 12 14 15 16 17 18 18 19 19 20 20 20 21 21 22 23 23 24 24 25 25 26 27
11 10 12 12 11 10 9 9 7 5 5 5 9 10 12 13 13 13 13 13 13 14 15 16 17 18 18 19 19 20 20 20 21 22 23 24 25 25 26 27 27 28 28 29
12 10 12 13 12 11 11 10 8 7 7 4 6 10 14 13 14 14 14 14 14 15 16 16 17 17 18 19 19 20 20 21 22 23 25 26 27 27 28 29 29 30 31 32
12 11 11 13 14 13 11 11 10 8 10 9 7 10 15 15 15 14 14 14 14 14 15 16 17 17 18 19 19 20 21 22 24 25 27 28 28 29 30 31 32 33 34 36
13 12 9 10 13 13 13 13 12 12 12 12 10 11 17 16 15 14 14 14 14 15 16 16 17 17 18 18 19 20 22 24 26 27 28 29 30 31 33 33 34 36 37 38
12 12 10 9 11 13 13 13 14 14 13 14 14 15 17 17 16 15 15 15 16 16 17 17 17 18 18 19 20 22 24 26 28 29 30 31 32 33 34 35 37 39 40 42
13 12 12 12 12 11 11 13 15 15 15 15 15 16 17 18 17 17 16 16 16 17 17 17 17 18 19 20 22 24 26 28 29 30 31 32 34 35 36 38 40 42 43 45
13 12 12 12 12 13 12 12 13 13 14 14 15 15 17 18 17 17 16 16 17 17 17 18 18 19 21 22 24 27 28 29 30 31 32 33 35 36 38 41 43 45 46 47
13 13 12 10 12 13 11 12 12 12 12 13 13 15 17 17 17 17 17 17 17 18 18 19 20 21 23 25 27 29 30 31 31 32 33 34 36 37 40 43 45 47 47 47
13 13 13 11 13 12 11 15 14 13 13 15 15 16 17 18 18 19 19 19 19 19 20 21 22 24 26 27 29 31 31 32 32 33 35 36 37 40 43 46 48 49 49 48
16 15 15 14 13 14 14 18 17 15 14 17 18 18 19 20 20 21 21 21 21 21 22 23 24 26 28 30 32 33 33 32 33 34 36 37 40 42 45 48 50 50 50 48
19 18 18 18 17 16 16 21 20 18 16 19 20 20 21 22 21 22 24 23 23 23 25 26 27 29 31 33 34 34 34 34 35 37 38 40 42 45 48 50 51 51 49 46
20 20 20 20 20 18 24 24 22 21 21 22 22 23 23 23 23 24 26 26 26 26 28 29 31 33 34 35 36 37 36 36 38 39 40 42 45 47 49 51 52 51 48 45
21 21 23 23 22 22 29 26 25 25 24 24 24 25 25 25 25 26 28 29 29 30 31 33 34 35 37 38 39 40 40 40 40 41 43 46 48 49 51 52 51 50 47 43
23 24 25 25 25 29 28 28 27 26 26 26 26 27 28 27 28 29 30 31 31 33 34 35 37 38 40 41 42 43 43 44 43 43 45 47 49 51 52 52 51 49 46 42
26 25 27 27 28 30 30 30 30 30 29 29 29 30 30 30 30 31 32 33 34 35 36 38 39 40 42 44 46 47 47 46 46 46 48 50 52 52 51 51 50 48 45 41
28 27 28 29 31 31 32 31 32 32 32 32 32 32 33 33 33 34 35 35 36 38 39 40 41 42 45 48 50 51 50 49 48 48 50 51 52 52 51 50 48 46 43 40
28 28 29 30 31 32 32 33 33 34 34 34 34 34 34 35 35 36 37 38 39 40 42 42 44 45 47 50 51 52 54 53 51 51 52 52 53 52 51 49 47 44 41 39
Wind_Direction
8 6 4 355 3 0 346 333 321 316 307 297 291 291 293 283 272 268 260 252 250 258 263 271 280 290 307 318 322 323 323 323 322 321 320 319 316 312 307 303 300 296 293 290
0 354 347 344 343 342 333 324 317 318 313 308 305 304 308 297 279 266 258 243 242 258 267 268 303 330 333 333 334 333 331 331 330 328 326 323 321 319 316 313 309 304 299 296
346 338 338 339 336 333 326 316 312 314 317 322 324 326 331 331 314 291 240 230 224 30 51 28 6 351 345 341 338 335 334 334 332 330 327 324 322 321 320 317 314 310 306 302
335 331 330 327 326 328 320 311 309 316 330 334 338 341 345 355 13 30 74 94 81 61 38 23 1 350 344 340 338 335 333 331 328 327 326 326 326 325 324 322 319 317 314 311
320 322 321 315 314 314 314 311 307 310 317 330 341 351 354 7 22 38 58 61 52 34 15 358 346 341 338 337 334 330 328 326 325 326 327 328 328 328 327 325 323 321 319 317
310 312 309 307 312 313 318 322 319 321 324 323 329 348 353 4 12 13 11 12 5 352 344 339 334 331 329 327 325 322 322 323 323 323 324 326 326 327 327 326 324 322 321 319
314 313 307 305 309 311 318 338 348 343 329 300 303 317 322 333 342 345 343 337 333 331 328 323 321 320 319 318 318 317 317 319 319 320 322 324 325 325 325 324 323 321 320 319
307 302 305 302 300 302 309 318 313 299 299 297 292 292 296 304 312 317 318 317 316 318 317 315 313 312 312 312 312 312 313 315 316 318 320 322 323 322 322 321 319 318 317 316
293 289 297 295 293 295 302 302 301 317 314 314 291 286 287 295 302 306 309 310 310 310 309 308 307 306 306 306 308 309 311 313 314 317 320 322 322 321 321 320 318 317 315 314
293 294 293 290 290 288 286 291 300 318 305 307 304 299 291 294 298 301 303 305 306 305 303 302 301 301 301 303 305 308 311 314 317 321 323 323 323 321 320 319 318 317 315 314
291 294 292 291 286 283 287 286 288 290 285 280 292 290 284 291 294 297 298 299 298 298 298 298 298 298 300 302 305 309 313 318 322 323 324 324 323 322 321 319 318 317 316 314
288 292 288 288 286 283 279 280 284 284 284 284 283 288 282 287 289 292 295 295 295 294 296 298 298 299 301 304 308 313 318 323 324 325 325 325 324 324 322 320 318 317 316 315
287 292 305 307 304 292 283 282 281 281 283 285 284 284 281 283 285 288 291 292 294 295 296 298 299 301 304 307 312 318 323 325 327 327 326 326 326 325 324 322 320 318 317 315
280 284 282 268 269 272 279 285 284 281 279 279 278 275 279 283 286 289 291 293 295 296 298 299 301 303 306 311 317 322 325 326 326 327 327 327 326 325 324 323 320 319 317 316
278 281 286 286 287 286 282 279 280 282 277 273 272 275 277 281 288 292 295 295 296 296 298 300 303 306 310 315 319 322 323 324 326 327 327 327 326 325 323 322 320 318 317 316
280 281 285 289 292 295 296 292 288 286 282 278 277 280 280 284 290 294 297 299 298 299 300 302 305 309 313 315 317 319 321 323 325 326 326 326 326 325 324 323 322 320 319 317
280 280 285 287 284 296 306 295 292 294 291 286 283 279 283 289 293 298 300 302 302 302 303 305 308 310 312 313 315 318 320 322 322 323 324 324 324 324 325 325 325 323 321 319
273 274 279 279 280 288 282 285 291 292 293 291 290 290 292 294 298 300 301 302 303 304 304 306 307 309 311 313 315 317 319 320 320 321 322 323 323 323 325 326 326 325 323 321
267 271 275 275 277 284 286 286 289 293 294 289 289 293 295 297 300 300 299 301 303 304 305 305 307 308 311 312 314 316 317 318 318 320 322 323 324 324 325 327 327 326 324 322
267 268 270 272 270 273 274 275 284 288 293 286 290 294 295 297 300 299 299 302 303 304 304 305 307 308 310 311 313 314 314 314 316 318 320 323 324 325 326 327 327 326 325 323
270 270 269 271 273 278 274 278 282 285 280 284 291 293 295 297 298 298 300 302 303 303 304 305 307 308 310 311 312 312 313 313 314 317 319 321 323 325 326 327 326 325 325 323
267 267 270 269 272 270 275 281 281 282 286 290 291 293 294 296 298 299 300 301 303 304 305 306 307 308 310 310 311 311 311 311 313 316 318 319 320 324 325 326 325 325 324 323
263 260 262 268 270 273 279 283 286 288 289 290 290 291 293 295 296 297 298 300 302 303 304 306 307 308 308 309 309 309 309 309 310 314 316 316 319 323 324 324 324 324 324 322
266 263 265 270 272 276 281 284 287 289 290 290 291 291 292 292 293 294 296 298 299 301 302 304 305 306 306 306 306 305 306 307 307 311 313 315 319 322 322 322 322 322 322 321
263 267 268 270 273 276 279 282 284 286 287 288 289 290 290 291 292 293 295 296 297 299 300 302 302 302 303 303 303 302 302 305 308 311 313 315 318 319 320 320 320 319 319 320
265 268 270 272 275 276 278 279 281 282 284 285 287 288 288 289 290 292 293 294 294 295 297 298 299 298 298 300 300 301 303 305 307 309 310 313 315 317 317 317 317 316 316 317
Height
5888 5887 5886 5884 5883 5882 5881 5881 5879 5878 5876 5875 5874 5872 5870 5868 5867 5866 5865 5865 5866 5867 5869 5869 5870 5870 5870 5869 5868 5867 5865 5863 5860 5858 5856 5853 5851 5848 5846 5843 5841 5839 5837 5836
5889 5888 5886 5884 5883 5882 5881 5880 5879 5877 5875 5873 5871 5869 5866 5863 5862 5861 5861 5862 5863 5865 5866 5868 5868 5868 5867 5867 5865 5863 5861 5859 5856 5854 5851 5849 5846 5843 5841 5838 5836 5834 5832 5830
5890 5889 5886 5884 5883 5882 5880 5880 5878 5876 5874 5871 5870 5867 5864 5861 5859 5859 5859 5861 5863 5865 5866 5866 5867 5866 5865 5864 5862 5860 5858 5855 5853 5850 5847 5845 5842 5839 5836 5834 5831 5829 5827 5824
5889 5888 5886 5884 5883 5881 5880 5878 5877 5875 5873 5872 5870 5868 5865 5862 5861 5860 5860 5861 5863 5865 5865 5865 5865 5864 5863 5862 5860 5858 5855 5853 5850 5848 5845 5842 5839 5836 5833 5830 5828 5825 5822 5820
5888 5887 5885 5883 5882 5880 5879 5877 5875 5874 5873 5872 5870 5868 5866 5863 5862 5862 5862 5863 5864 5864 5864 5864 5864 5863 5861 5860 5858 5856 5854 5851 5849 5846 5843 5839 5836 5833 5830 5827 5824 5821 5819 5816
5887 5885 5884 5882 5881 5879 5877 5876 5875 5873 5873 5873 5870 5869 5867 5865 5864 5864 5863 5863 5864 5864 5863 5863 5862 5860 5859 5858 5856 5854 5852 5849 5847 5844 5840 5837 5834 5830 5827 5824 5821 5818 5815 5812
5885 5884 5882 5881 5879 5878 5877 5877 5877 5877 5876 5873 5870 5869 5868 5866 5865 5864 5864 5864 5863 5863 5862 5861 5860 5859 5858 5856 5854 5852 5850 5847 5844 5841 5838 5834 5831 5827 5824 5820 5817 5813 5810 5807
5885 5884 5881 5879 5878 5877 5875 5876 5877 5876 5875 5873 5869 5868 5868 5865 5864 5864 5863 5863 5862 5861 5860 5859 5858 5857 5855 5854 5852 5850 5847 5844 5841 5838 5834 5830 5826 5823 5819 5815 5812 5808 5805 5801
5883 5882 5878 5877 5876 5875 5874 5874 5873 5873 5872 5871 5869 5867 5866 5864 5864 5863 5862 5861 5860 5859 5858 5857 5856 5854 5853 5851 5849 5847 5844 5841 5838 5834 5830 5826 5822 5818 5814 5810 5806 5802 5798 5795
5879 5879 5876 5874 5874 5873 5873 5871 5871 5871 5871 5872 5870 5867 5866 5863 5862 5861 5860 5859 5858 5857 5856 5855 5853 5851 5850 5848 5846 5843 5840 5837 5833 5829 5824 5820 5816 5812 5808 5804 5800 5795 5791 5787
5876 5876 5875 5872 5871 5871 5870 5869 5868 5869 5868 5869 5870 5870 5863 5862 5861 5860 5859 5857 5856 5855 5854 5852 5850 5848 5846 5844 5842 5839 5835 5832 5827 5823 5819 5814 5810 5806 5801 5797 5793 5788 5784 5779
5873 5873 5872 5870 5867 5867 5866 5866 5866 5867 5866 5865 5866 5869 5861 5860 5858 5857 5856 5855 5854 5852 5850 5848 5846 5844 5842 5840 5837 5834 5830 5826 5822 5817 5813 5808 5804 5799 5794 5790 5785 5781 5776 5770
5869 5869 5870 5870 5867 5865 5863 5862 5862 5862 5862 5862 5863 5866 5858 5857 5855 5854 5853 5852 5851 5849 5847 5845 5842 5840 5838 5835 5832 5829 5824 5820 5816 5811 5806 5802 5797 5792 5787 5782 5777 5772 5767 5761
5866 5866 5866 5868 5865 5862 5861 5860 5858 5858 5859 5860 5859 5859 5856 5853 5852 5851 5850 5848 5846 5844 5842 5840 5838 5836 5833 5830 5827 5823 5818 5814 5809 5805 5800 5795 5790 5785 5780 5775 5769 5763 5758 5752
5862 5862 5861 5861 5859 5858 5857 5856 5855 5854 5854 5854 5854 5853 5852 5849 5848 5847 5845 5844 5842 5840 5837 5835 5833 5830 5827 5824 5821 5817 5812 5808 5803 5798 5794 5789 5783 5778 5773 5767 5761 5754 5748 5741
5858 5858 5857 5856 5856 5854 5853 5852 5851 5851 5849 5849 5849 5848 5847 5845 5844 5842 5841 5839 5837 5834 5832 5830 5827 5824 5822 5818 5815 5810 5806 5802 5797 5792 5787 5782 5776 5771 5765 5759 5752 5745 5738 5731
5854 5854 5854 5853 5854 5851 5851 5850 5849 5848 5846 5845 5845 5845 5842 5841 5839 5838 5836 5834 5832 5829 5827 5824 5821 5819 5815 5812 5808 5804 5799 5795 5790 5785 5780 5775 5769 5763 5757 5750 5743 5735 5727 5720
5851 5850 5849 5850 5850 5849 5851 5846 5845 5844 5843 5841 5840 5839 5837 5836 5834 5832 5830 5828 5826 5823 5821 5818 5815 5812 5809 5805 5801 5797 5792 5787 5783 5778 5773 5767 5761 5755 5748 5740 5733 5725 5717 5709
5846 5846 5846 5846 5847 5846 5846 5842 5841 5840 5839 5837 5836 5834 5832 5830 5829 5827 5824 5823 5820 5817 5815 5812 5809 5806 5802 5798 5794 5789 5785 5780 5775 5770 5765 5759 5752 5746 5738 5730 5722 5714 5706 5698
5841 5841 5842 5841 5841 5842 5842 5837 5836 5837 5836 5833 5831 5829 5827 5826 5825 5823 5819 5816 5813 5811 5808 5805 5802 5798 5794 5790 5786 5781 5777 5772 5767 5761 5756 5749 5743 5736 5728 5720 5712 5704 5695 5687
5836 5836 5836 5836 5836 5837 5833 5832 5832 5833 5831 5828 5826 5824 5822 5820 5818 5815 5812 5809 5807 5804 5801 5798 5794 5790 5786 5782 5777 5773 5768 5763 5758 5752 5746 5740 5733 5726 5718 5710 5702 5693 5685 5677
5830 5831 5830 5830 5831 5832 5824 5825 5825 5824 5823 5821 5819 5817 5814 5812 5810 5808 5805 5802 5799 5796 5793 5789 5786 5782 5777 5773 5768 5763 5759 5754 5748 5743 5737 5730 5723 5716 5708 5699 5691 5683 5675 5668
5823 5823 5823 5824 5825 5820 5819 5818 5817 5816 5815 5813 5811 5809 5807 5805 5802 5800 5797 5794 5791 5788 5784 5780 5777 5772 5768 5763 5758 5753 5748 5743 5738 5732 5726 5720 5712 5705 5697 5688 5680 5673 5665 5658
5815 5814 5815 5815 5814 5812 5811 5810 5809 5807 5806 5804 5802 5800 5798 5796 5794 5791 5788 5785 5782 5778 5775 5771 5767 5763 5758 5753 5748 5743 5738 5733 5727 5721 5715 5709 5701 5694 5685 5678 5670 5663 5656 5649
5807 5807 5807 5807 5806 5805 5803 5802 5800 5799 5797 5795 5793 5791 5789 5787 5784 5782 5779 5775 5772 5769 5765 5761 5757 5753 5748 5743 5737 5732 5727 5721 5715 5710 5704 5697 5690 5682 5675 5667 5660 5653 5646 5640
5800 5800 5800 5798 5797 5796 5795 5793 5791 5790 5788 5786 5784 5782 5779 5777 5774 5771 5768 5765 5762 5758 5755 5751 5747 5742 5737 5732 5726 5721 5715 5709 5704 5698 5692 5685 5678 5671 5663 5656 5650 5643 5637 5631